Home > Weather > Shawinigan > Past weeks

Flag for Canada Weather for the Past 2 Weeks in Shawinigan, Quebec, Canada

Now
-4 °F

Frigid.


Feels Like: -19 °F
Forecast: -9 / 4 °F
Wind: 8 mph from West

Location: Shawinigan CS

Current Time: Feb 13, 2016 at 3:04:16 PM

Latest Report: Feb 13, 2016 at 2:00 PM


Visibility: N/A

Pressure: 30.01 "Hg

Humidity: 52%

Dew point: -17 °F

Location of ShawiniganLocation

Historic Weather in Shawinigan — Graph

°F

Shawinigan Temperature Yesterday

Maximum temperature yesterday: 8 °F (at 4:00 PM)
Minimum temperature yesterday: -12 °F (at 7:00 AM)
Average temperature yesterday: 0 °F

High & Low Weather Summary for the Past Weeks

 TemperatureHumidityPressure
High37 °F (Feb 8, 3:00 PM)99% (Feb 8, 4:00 PM)30.08 "Hg (Feb 8, 4:00 PM)
Low-12 °F (Feb 12, 7:00 AM)48% (Feb 13, 12:00 PM)29.52 "Hg (Feb 10, 2:00 PM)
Average8 °F71%29.79 "Hg
* Reported Feb 8 3:00 PM — Feb 13 2:00 PM, Shawinigan, Weather by CustomWeather, © 2016

Note: Actual official high and low records may vary slightly from our data, if they occured in-between our weather recording intervals... More about our weather records

Advertising

Shawinigan Weather History for the Previous 24 Hours

 ConditionsComfort  
Time TempWeatherWind HumidityBarometerVisibility
2:00 PM
Sat, Feb 13
-4 °FFrigid.8 mph52%30.01 "HgN/A
1:00 PM-4 °FFrigid.6 mph48%29.99 "HgN/A
12:00 PM-6 °FFrigid.7 mph48%29.98 "HgN/A
11:00 AM-7 °FFrigid.7 mph59%29.98 "HgN/A
10:00 AM-8 °FFrigid.7 mph53%29.95 "HgN/A
9:00 AM-9 °FFrigid.8 mph53%29.93 "HgN/A
8:00 AM-10 °FExtremely cold.12 mph57%29.91 "HgN/A
7:00 AM-8 °FFrigid.9 mph60%29.88 "HgN/A
6:00 AM-5 °FFrigid.15 mph61%29.85 "HgN/A
5:00 AM0 °FFrigid.15 mph65%29.81 "HgN/A
4:00 AM4 °FFrigid.10 mph69%29.79 "HgN/A
3:00 AM5 °FFrigid.10 mph71%29.78 "HgN/A
2:00 AM6 °FFrigid.6 mph74%29.78 "HgN/A
1:00 AM6 °FFrigid.8 mph75%29.77 "HgN/A
12:00 AM6 °FFrigid.7 mph77%29.76 "HgN/A
11:00 PM
Fri, Feb 12
7 °FFrigid.7 mph81%29.77 "HgN/A
10:00 PM7 °FFrigid.5 mph81%29.78 "HgN/A
9:00 PM6 °FFrigid.6 mph82%29.80 "HgN/A
8:00 PM7 °FFrigid.7 mph88%29.82 "HgN/A
7:00 PM7 °FFrigid.6 mph81%29.85 "HgN/A
6:00 PM7 °FFrigid.5 mph78%29.87 "HgN/A
5:00 PM8 °FFrigid.3 mph68%29.88 "HgN/A
4:00 PM8 °FFrigid.5 mph58%29.89 "HgN/A
3:00 PM8 °FFrigid.7 mph53%29.92 "HgN/A
Weather by CustomWeather, © 2016

See weather overviewHow to use our weather pages